Theta_e
349 349 351 353 353 354 355 356 355 352 352 356 357 357 358 359 359 361 363 364 364 364 364 363 364 364 363 362 361 361 362 362 362 362 361 361 360 360 359 357 355 354 354 355 354 354 353 352 351 350 348 345 344 343 340 338 340 341 341 340 340 339 337
350 348 351 353 353 355 357 356 353 352 353 355 357 358 358 360 360 362 363 365 366 365 364 364 364 364 364 363 362 362 362 362 362 362 361 361 360 360 358 356 356 355 354 354 354 354 353 351 350 350 348 345 343 341 340 339 338 341 342 341 342 340 337
350 350 352 354 355 355 358 357 354 353 353 355 357 358 359 360 360 362 364 365 366 366 366 365 364 364 364 364 364 363 363 362 363 363 362 361 360 359 358 357 356 356 355 354 353 352 351 350 349 350 348 345 343 341 342 340 334 338 342 341 341 340 338
351 353 353 353 356 356 358 359 356 353 352 354 357 358 359 360 360 362 363 365 367 367 367 366 365 365 364 364 365 364 364 363 363 363 362 362 361 360 360 358 357 357 356 355 353 350 350 349 348 348 348 346 343 340 343 341 335 338 342 340 340 341 338
353 354 354 353 354 357 359 359 357 354 352 354 357 358 359 360 360 361 362 364 367 367 367 367 366 365 364 364 365 365 365 364 363 363 362 362 362 362 361 360 358 358 356 354 352 349 349 349 348 348 348 347 344 340 341 342 337 340 342 338 338 340 339
353 353 354 354 352 355 357 356 356 355 354 354 356 358 359 359 360 361 362 363 366 366 367 368 367 366 365 365 365 365 365 364 363 362 362 362 363 363 362 361 359 357 356 354 352 349 349 349 349 348 347 347 345 341 341 342 340 340 342 339 337 338 338
351 352 353 353 351 352 353 354 354 354 355 355 356 358 359 359 360 361 361 363 365 367 367 368 368 366 366 365 365 365 365 364 363 362 362 362 362 363 363 361 360 358 356 354 351 350 349 349 349 348 347 347 345 342 342 343 342 341 342 341 339 338 338
350 352 351 351 351 349 351 354 353 353 355 355 356 359 359 359 360 360 361 362 364 367 368 368 368 367 366 366 365 365 365 364 364 362 362 363 362 363 362 362 361 358 357 355 352 351 350 349 349 348 347 347 346 344 342 343 343 342 341 342 342 339 338
348 351 351 350 349 349 351 354 354 352 353 354 355 358 359 359 360 360 360 362 363 366 367 368 369 368 367 366 365 365 365 364 364 363 363 363 363 363 363 362 361 359 357 356 354 352 351 350 349 348 347 347 346 344 342 343 344 342 340 341 342 341 339
350 350 351 351 349 350 352 354 355 355 355 356 356 357 359 359 360 359 360 361 362 364 367 368 368 368 367 367 366 366 365 364 364 363 363 363 362 363 363 362 361 360 358 357 355 354 352 351 350 349 347 347 346 345 343 342 343 343 340 340 342 342 340
354 353 353 353 352 352 354 355 357 358 358 358 356 357 359 359 359 360 359 360 361 363 366 367 368 369 368 367 366 366 366 365 364 364 363 363 362 362 362 362 362 360 359 358 357 355 354 352 351 349 348 347 346 345 343 342 343 344 342 340 341 342 341
356 356 356 356 355 354 356 358 358 360 361 360 357 358 359 358 360 359 358 359 360 362 364 366 368 369 369 368 367 366 366 365 365 364 364 363 363 362 362 362 362 361 360 359 358 357 356 353 351 350 348 347 346 345 344 343 343 344 344 342 341 341 341
355 355 355 356 355 356 360 363 362 364 364 361 358 358 359 359 360 359 359 359 359 360 363 365 367 370 369 369 368 366 366 366 365 365 364 363 363 362 363 362 362 362 361 360 360 358 357 355 352 351 349 348 347 345 344 344 343 344 344 343 342 341 341
353 353 356 355 354 358 362 364 366 368 368 364 359 358 359 360 359 360 359 359 358 359 362 365 367 370 370 370 369 367 366 365 365 365 364 363 363 362 363 362 362 362 362 361 360 359 358 356 353 351 350 348 348 346 345 345 344 344 344 342 341 342 343
353 353 356 356 357 361 365 365 366 369 370 368 362 358 360 360 360 360 359 359 358 359 361 365 367 369 371 371 369 367 366 366 365 365 365 364 363 362 362 362 361 362 362 362 361 360 359 357 355 353 351 349 348 347 345 345 345 344 344 340 339 342 344
356 356 357 359 361 363 365 365 366 368 371 373 367 361 360 361 360 361 360 360 359 359 361 365 366 369 370 370 370 367 366 366 366 365 365 365 364 363 362 362 361 362 363 362 361 361 359 358 356 354 351 350 349 347 346 345 345 344 344 340 334 338 343
365 365 366 370 373 371 370 371 370 369 373 376 371 362 361 363 362 361 362 361 360 359 361 364 366 368 368 369 369 367 367 366 365 365 365 365 365 364 363 363 363 362 363 363 362 361 360 359 357 355 353 351 349 348 346 345 345 344 344 342 333 332 340
376 376 375 380 383 381 382 387 384 377 374 374 370 364 362 364 364 363 362 362 362 361 361 363 365 366 366 369 369 368 367 366 365 365 365 366 365 365 364 364 364 363 363 364 363 362 361 359 358 356 354 352 349 348 347 346 345 343 343 343 336 332 337
369 373 374 378 380 378 379 382 386 383 376 371 368 365 364 365 364 364 364 363 363 362 361 362 364 364 365 367 368 369 368 367 367 366 365 365 365 365 365 364 364 364 363 363 363 362 361 359 358 356 355 353 350 349 347 346 345 344 342 342 339 334 336
364 363 363 366 371 372 370 373 379 378 372 369 368 367 365 365 365 365 364 363 363 362 361 361 363 364 365 366 368 369 369 368 368 367 365 366 366 366 366 365 365 364 364 364 363 362 361 359 358 356 355 353 351 349 347 346 345 344 343 342 340 337 335
370 369 363 363 368 369 367 369 377 378 372 367 367 368 366 366 366 366 365 364 363 362 360 361 363 364 364 365 367 369 369 369 368 368 367 366 366 367 367 366 365 365 364 364 363 361 361 359 358 356 354 352 351 349 348 346 345 344 343 342 340 338 335
361 368 367 368 372 373 372 368 368 371 371 368 368 368 366 366 366 366 366 366 365 363 361 360 362 365 364 366 367 368 369 370 369 369 369 368 368 369 368 367 366 365 364 364 363 362 361 360 359 357 354 351 350 349 348 347 345 345 344 342 341 339 337
344 350 357 365 368 367 365 363 362 362 366 367 368 368 367 366 367 367 367 367 366 365 364 362 364 366 365 366 368 368 370 371 370 371 370 370 370 369 369 368 366 365 365 364 363 363 362 361 360 357 354 351 350 349 348 346 345 345 344 342 341 340 338
332 332 342 354 364 366 361 360 362 362 365 368 368 368 367 366 367 368 367 367 367 366 365 365 366 367 367 367 368 370 371 372 371 372 371 371 370 369 368 368 366 365 364 363 363 363 362 362 360 357 354 352 350 349 347 345 345 344 343 341 339 339 337
340 341 341 338 343 353 360 362 363 362 365 368 368 367 368 367 367 369 368 368 368 368 366 366 368 369 368 369 370 371 372 372 372 372 371 370 369 368 368 367 365 365 364 362 362 361 360 361 359 356 353 351 349 348 346 345 344 343 341 339 338 338 336
351 357 364 356 344 340 347 358 366 368 368 369 369 368 368 367 368 369 369 368 368 368 367 367 368 370 370 371 373 373 373 373 372 372 370 369 368 367 366 365 365 364 362 361 361 360 359 359 357 354 351 348 347 346 344 343 342 341 339 338 337 337 336
355 357 368 372 359 343 344 354 363 369 369 370 370 369 368 368 369 369 369 369 368 369 368 367 370 373 373 373 375 374 374 373 371 370 369 368 367 366 365 364 363 362 361 361 360 360 358 357 355 351 348 345 344 343 342 342 341 340 339 337 336 336 335
359 361 366 371 366 360 360 364 366 368 371 372 371 370 368 368 369 369 369 369 369 369 369 369 373 374 374 375 375 374 373 372 371 370 368 367 366 364 362 362 361 360 361 360 359 359 357 355 353 350 348 345 343 343 342 341 341 341 340 337 336 336 336
355 359 362 365 364 362 364 366 364 363 368 371 370 370 371 370 369 370 370 370 370 369 370 373 375 375 375 375 373 372 371 370 369 368 366 365 364 362 361 360 359 359 359 358 357 356 354 353 352 350 347 345 343 343 343 341 341 341 340 339 339 338 337
353 352 352 356 357 354 356 362 360 353 355 361 362 365 369 371 372 370 370 371 371 371 373 375 376 375 374 373 371 370 369 367 366 365 363 362 362 361 359 358 358 358 358 356 355 353 351 350 350 348 346 344 342 342 341 340 340 340 340 341 342 340 338
350 350 349 350 350 348 351 359 359 351 350 355 356 355 359 364 368 370 371 372 372 373 375 376 375 374 372 370 368 367 365 364 363 361 360 360 359 358 357 356 356 356 355 354 353 351 349 347 346 346 344 342 340 340 339 338 337 337 338 339 338 336 335
347 347 347 347 347 347 347 350 352 350 349 351 353 353 353 355 358 363 370 374 375 374 376 374 372 370 368 366 365 363 361 361 360 359 358 358 357 357 356 355 355 353 351 350 349 348 347 345 344 343 342 341 340 339 338 337 336 335 335 334 332 330 331
346 347 347 346 345 345 345 346 350 351 349 348 349 351 352 352 350 350 358 370 374 373 373 370 367 364 363 362 361 360 359 358 357 357 357 357 356 355 354 354 353 351 349 347 346 345 345 343 342 342 341 340 340 339 339 339 338 337 336 334 331 330 331
344 345 346 347 346 345 344 345 347 348 347 346 347 348 348 350 349 347 352 363 369 369 367 364 362 361 360 359 358 357 357 356 356 355 355 354 354 353 351 352 352 350 348 346 345 344 344 343 342 342 340 340 340 340 340 341 340 340 338 336 334 331 329
343 343 343 345 345 345 346 347 348 348 346 345 346 346 346 347 349 350 352 357 362 363 361 359 359 359 358 356 355 354 353 354 353 352 351 350 349 347 347 348 349 347 346 345 344 344 343 342 342 341 341 340 340 340 341 342 341 341 340 339 336 333 330
343 342 343 343 342 342 344 346 348 347 346 344 345 345 345 346 349 352 353 354 356 357 355 355 356 356 355 354 353 351 351 350 349 349 349 347 346 343 342 343 345 345 345 344 344 344 343 343 343 343 342 342 341 340 341 342 341 340 340 338 336 334 332
342 343 343 343 343 342 342 344 345 345 343 341 342 344 344 346 348 351 351 352 353 354 354 354 354 353 353 352 351 350 349 347 346 347 346 345 344 343 339 339 340 341 342 343 343 343 344 344 344 344 343 343 342 342 342 342 341 340 338 337 335 334 334
336 340 342 344 345 344 342 343 344 343 342 342 343 344 345 347 350 351 351 352 352 352 353 353 352 351 350 350 350 349 348 346 345 344 343 341 342 342 340 339 337 336 337 339 340 341 343 343 344 344 343 342 342 341 341 341 340 338 336 335 335 335 334
Wind_Speed
16 16 13 13 14 15 16 17 17 20 25 29 32 35 36 36 37 36 36 38 39 38 39 39 38 38 39 39 39 39 38 37 35 35 34 33 32 32 33 33 32 31 32 31 28 27 29 29 28 28 26 23 22 21 20 20 22 19 16 17 20 19 17
16 16 14 13 14 14 16 18 18 21 25 28 32 35 36 36 37 37 37 38 40 39 40 40 39 39 39 39 39 39 39 37 36 35 34 34 32 32 34 34 33 33 33 32 29 28 29 30 29 29 28 25 22 22 20 21 23 21 18 20 22 20 17
16 15 14 14 15 15 16 17 17 21 26 28 31 34 36 38 39 39 38 39 40 39 39 40 40 40 39 39 39 39 39 38 37 36 35 35 34 32 33 34 34 33 33 33 32 30 29 30 31 30 29 27 24 24 23 22 24 23 20 22 23 21 19
16 15 15 15 16 15 15 16 16 20 26 30 32 35 37 39 39 39 38 39 40 39 40 41 41 41 40 40 39 39 39 39 38 38 36 35 35 33 32 34 34 34 34 33 33 33 31 31 31 30 29 28 26 26 26 25 25 25 23 23 23 22 21
17 16 15 15 14 12 12 14 15 19 25 29 32 34 36 37 37 37 37 39 40 41 41 41 40 40 39 39 39 38 39 40 38 38 37 35 34 34 33 34 35 35 35 34 34 35 34 32 32 31 30 29 29 28 28 27 27 26 24 25 25 24 22
17 16 15 14 14 13 14 16 17 22 27 29 31 32 33 35 36 36 37 37 39 40 40 40 39 39 39 39 39 37 39 40 39 38 37 36 35 34 34 35 37 36 35 36 36 36 36 34 33 33 32 31 30 30 30 29 29 28 26 26 27 26 25
17 16 16 15 15 15 16 16 17 24 29 30 30 30 32 35 36 36 37 36 38 39 38 39 39 39 39 39 39 38 38 39 39 38 37 36 36 35 35 35 37 38 36 36 37 37 37 37 36 35 34 34 33 32 32 31 32 32 30 28 28 27 26
18 16 16 16 16 16 15 14 14 19 25 27 28 30 34 36 36 36 37 37 37 38 38 39 39 40 39 39 39 39 39 39 39 38 37 36 36 36 36 35 37 38 37 37 38 39 39 39 38 37 36 36 35 34 34 34 34 34 33 30 30 29 28
19 18 18 18 18 15 14 14 14 16 21 25 28 31 33 35 35 37 37 37 37 37 38 39 39 40 39 39 39 40 39 39 39 39 38 37 37 37 37 36 36 37 38 38 38 39 40 40 40 39 38 38 37 36 36 36 35 36 36 34 33 33 31
19 18 18 18 16 14 13 13 13 14 15 19 24 28 31 34 36 36 36 37 37 37 38 39 38 39 39 39 40 39 38 38 39 39 39 39 38 37 37 37 37 37 39 39 38 38 40 40 40 40 40 39 39 39 38 38 38 37 38 37 35 34 33
16 16 16 17 16 14 14 13 13 14 14 16 22 26 30 34 35 35 37 37 37 36 37 38 37 38 39 39 39 38 38 39 39 39 40 40 39 38 38 37 37 38 39 39 39 39 39 39 40 41 41 41 40 40 40 40 39 38 38 38 35 33 33
15 15 15 17 16 14 15 14 15 16 15 16 22 27 29 31 33 34 36 37 36 36 36 38 37 37 38 38 38 38 39 39 39 40 41 41 39 39 39 38 38 38 39 39 39 39 39 40 41 41 42 42 41 40 40 39 39 38 36 33 32 33 34
15 16 15 16 16 15 15 15 16 18 16 17 22 26 28 30 32 33 34 35 36 36 36 37 37 37 38 38 38 38 39 40 41 41 42 41 40 39 39 39 39 39 39 39 39 39 40 40 41 41 41 41 41 40 40 38 38 36 33 31 34 36 37
14 16 15 15 15 15 16 16 16 16 15 16 20 25 27 29 32 33 34 36 37 36 37 37 38 38 38 39 39 39 40 41 42 42 41 41 41 40 40 40 39 39 39 40 39 40 40 41 41 40 40 40 40 39 38 37 36 35 33 36 39 39 37
15 15 15 15 15 14 13 14 14 14 13 14 17 22 25 27 30 32 33 35 37 38 38 38 39 38 38 39 40 40 41 41 41 41 40 40 40 40 41 41 40 39 40 40 40 39 39 39 40 39 38 38 38 38 37 37 36 36 38 41 41 38 37
11 13 14 14 14 13 13 14 14 13 13 13 13 18 22 25 28 31 32 34 36 38 39 39 39 39 38 39 40 40 40 40 40 40 40 40 41 42 42 41 40 39 39 40 41 39 37 37 38 38 38 37 38 38 37 37 37 38 41 43 41 39 37
10 9 10 11 11 11 11 11 12 12 13 13 15 19 23 25 28 31 32 33 36 38 39 39 39 39 39 40 40 39 39 40 40 40 41 41 42 43 42 41 40 39 38 39 39 38 37 36 36 38 38 38 39 39 38 38 39 40 42 43 42 40 36
13 12 11 10 10 10 10 11 11 12 13 14 17 22 25 26 28 29 31 34 37 39 39 38 39 40 40 40 39 39 39 40 41 40 41 42 42 42 41 39 38 37 36 37 38 38 37 36 37 38 39 39 40 40 39 39 40 41 43 43 43 41 36
12 15 15 14 14 14 14 15 14 14 15 16 19 25 30 31 30 30 34 37 38 39 38 38 38 39 39 39 39 40 40 40 41 41 41 41 41 40 39 37 36 36 35 36 38 38 37 36 37 38 39 40 40 40 40 39 39 41 42 43 43 42 37
9 10 12 14 16 16 15 14 13 15 18 22 26 31 35 35 35 36 39 39 38 39 39 39 38 39 39 39 40 40 40 40 40 40 40 40 38 36 36 36 36 35 35 35 36 38 38 36 36 38 40 41 41 40 39 38 39 41 42 42 43 43 40
7 7 8 10 12 14 15 14 13 13 16 23 30 32 33 34 36 37 37 36 36 38 40 40 37 37 39 39 40 40 39 39 39 38 37 36 35 34 35 35 35 34 34 34 35 37 38 36 36 37 39 40 39 38 37 37 38 40 41 42 42 43 41
7 7 9 10 11 12 13 14 15 16 19 24 28 28 29 32 34 33 32 35 36 36 38 38 35 35 37 38 39 40 39 38 37 35 34 34 34 34 34 35 35 34 33 32 32 34 36 36 35 36 37 38 37 37 35 35 37 40 41 41 41 41 41
8 7 8 9 11 13 15 18 21 23 25 26 26 27 29 33 34 32 31 32 33 34 35 34 32 33 36 37 38 38 37 36 35 34 33 33 34 34 34 35 34 33 33 32 31 31 32 33 33 33 34 34 35 36 34 33 36 39 40 41 40 40 40
8 7 7 8 10 12 15 19 22 24 26 25 26 31 34 33 33 31 29 30 31 31 31 31 31 33 35 36 37 37 37 37 36 35 35 34 34 34 33 33 33 33 33 32 30 29 27 27 28 28 30 33 34 35 34 33 35 38 39 39 38 39 40
10 8 7 7 9 11 16 22 24 26 26 24 26 31 34 33 34 31 27 29 31 30 28 29 32 33 34 35 36 37 37 37 37 36 35 34 33 33 33 32 32 32 31 29 28 26 24 23 24 25 28 31 33 34 33 32 33 34 35 35 37 39 39
10 8 7 6 7 7 15 25 25 22 21 23 29 34 34 32 31 29 28 30 29 27 29 32 33 32 33 35 35 36 37 37 36 36 34 33 33 32 32 31 30 29 29 27 26 25 24 24 24 26 27 29 30 31 32 31 30 30 30 32 34 38 38
10 9 6 4 8 10 10 20 24 22 23 27 31 35 36 35 31 27 27 28 26 27 31 33 31 30 31 33 34 35 35 35 35 35 34 34 33 31 30 30 29 28 28 26 24 23 23 24 24 25 26 27 27 28 29 30 30 29 30 32 34 37 39
12 10 7 4 7 11 8 6 13 19 26 31 32 31 31 30 27 26 25 23 23 29 31 29 30 32 33 33 33 34 34 34 35 35 34 34 33 32 30 29 28 27 26 25 23 22 22 23 23 23 23 24 25 26 26 28 29 28 30 33 34 36 40
13 13 11 10 12 15 15 10 6 5 3 13 23 29 31 26 18 17 20 21 22 26 28 29 32 34 33 33 33 33 34 35 35 34 34 33 33 32 30 28 27 27 27 26 24 22 21 23 23 22 21 21 22 24 25 26 27 28 29 31 33 35 39
14 14 13 12 11 13 14 11 10 16 21 21 17 9 14 24 25 21 18 19 23 27 28 31 34 34 32 33 33 33 34 34 34 33 32 33 33 32 30 29 28 28 28 28 27 25 24 24 25 24 22 20 20 21 22 23 25 26 27 29 31 32 36
12 12 12 13 13 14 13 11 11 13 16 19 23 25 24 11 9 19 21 23 28 31 32 32 32 32 31 31 31 32 33 32 31 31 31 32 32 32 31 30 29 29 28 28 28 27 25 25 25 25 23 21 20 20 20 20 21 21 23 26 28 27 28
12 13 13 13 14 15 13 12 12 11 11 11 7 3 14 20 17 8 10 25 32 32 34 34 32 30 30 30 30 32 32 31 30 30 29 30 30 30 29 28 27 25 24 24 24 22 21 21 22 22 22 20 19 19 19 20 20 22 24 25 26 25 24
12 12 13 13 15 16 14 12 10 8 8 10 11 10 8 3 5 12 7 17 31 35 35 35 32 29 29 31 31 31 31 31 30 28 26 26 25 24 23 24 24 22 21 22 21 19 18 18 18 19 18 17 17 17 18 19 21 23 24 25 27 27 26
11 11 12 15 18 18 14 10 8 9 10 9 12 16 16 12 5 5 8 10 26 35 37 36 34 32 31 31 30 29 28 29 27 25 24 23 22 21 20 20 21 21 20 21 21 21 20 18 17 17 16 16 16 15 15 18 22 24 24 25 26 28 28
9 9 11 14 17 17 15 12 11 10 11 10 13 16 17 16 10 2 4 8 18 27 32 32 32 32 31 29 27 26 26 26 26 26 26 25 23 22 19 17 18 18 18 18 18 19 19 18 16 15 14 14 15 16 17 18 20 23 25 25 25 25 26
8 7 9 12 15 16 17 18 17 14 10 12 16 18 17 14 12 8 8 16 21 25 28 28 27 27 27 26 25 25 26 26 26 27 27 26 25 23 20 16 14 14 14 14 14 15 15 14 12 12 12 13 13 15 19 20 20 22 25 26 26 25 24
11 9 9 10 12 13 16 18 18 15 12 10 14 19 16 9 8 11 15 20 24 26 27 26 25 24 24 24 25 25 26 26 27 27 26 26 25 23 21 17 14 11 9 9 10 11 12 11 10 9 11 13 12 12 16 18 19 21 23 25 26 24 23
16 15 13 11 9 10 14 16 14 10 7 6 10 15 11 7 12 18 19 20 23 25 25 26 25 23 23 24 26 27 28 28 28 28 27 26 25 23 22 19 16 11 7 5 7 9 10 11 11 9 10 12 13 13 15 16 19 22 24 24 24 21 18
Wind_Direction
191 193 191 186 184 184 185 185 183 183 182 181 184 186 185 186 186 186 187 189 191 191 192 194 195 196 197 198 199 199 199 199 199 199 199 198 197 196 193 192 190 187 186 185 186 188 187 186 187 188 188 189 190 191 194 193 186 186 193 194 190 191 191
190 193 194 188 184 184 186 188 185 183 183 183 184 185 186 187 186 186 188 189 191 192 193 194 195 196 197 198 199 199 199 200 200 199 199 198 198 197 194 192 191 192 192 191 190 188 187 188 190 190 189 190 191 192 196 194 188 188 189 187 188 190 188
189 187 186 183 184 186 187 188 186 184 184 183 184 185 187 188 187 188 188 188 190 192 192 194 196 197 198 199 199 200 200 200 199 199 199 198 198 197 195 193 193 194 195 195 193 189 186 188 191 191 190 192 192 193 197 196 190 188 187 184 184 188 190
186 182 181 182 184 185 185 187 187 186 186 185 185 187 188 189 189 189 189 189 189 190 192 195 196 197 198 199 199 200 200 200 199 199 199 198 197 196 194 193 193 194 194 194 193 190 187 189 191 192 192 193 194 196 199 200 193 190 193 190 186 189 194
182 181 184 185 185 184 180 185 188 187 189 188 186 187 188 188 189 189 190 190 190 192 194 195 196 197 199 200 200 200 200 199 199 199 199 198 197 196 195 194 193 194 194 193 193 191 190 190 191 192 193 194 196 198 201 200 195 193 197 197 194 194 197
182 183 186 187 187 190 187 187 189 188 188 187 186 185 185 187 189 191 192 191 191 193 194 195 196 197 199 200 201 200 200 200 199 198 199 198 197 196 196 196 195 194 194 194 194 193 192 193 193 193 194 195 196 197 200 200 197 195 196 198 200 199 199
182 185 187 188 188 193 194 191 189 188 188 186 183 181 183 187 190 192 192 192 192 193 193 194 196 197 199 200 201 200 200 200 199 198 198 198 198 198 197 197 197 196 195 195 195 195 195 195 195 196 196 195 196 197 199 199 198 197 198 199 202 203 204
183 185 186 187 191 194 193 192 191 189 186 183 180 180 184 188 189 191 193 193 193 194 194 195 196 197 199 200 200 201 201 200 198 198 198 198 199 199 199 198 198 197 196 196 197 197 197 197 196 197 197 197 197 198 200 201 200 198 199 200 202 203 204
183 184 186 189 192 192 189 188 188 187 186 185 185 185 185 186 189 192 193 193 194 195 195 196 197 198 199 199 201 202 201 199 198 198 198 198 199 199 200 200 199 198 197 198 198 198 199 199 198 198 198 198 198 199 201 202 201 200 199 200 201 202 203
185 185 187 190 189 187 186 185 181 182 186 189 189 186 184 186 190 192 192 193 195 196 196 196 198 198 199 200 201 201 200 199 199 198 198 198 199 200 200 201 201 200 199 199 199 200 200 201 200 200 200 199 199 201 202 202 202 201 201 202 202 202 202
184 186 188 191 188 182 181 178 177 184 188 190 190 186 185 187 189 190 191 194 195 196 196 197 198 198 199 201 201 201 200 199 199 198 199 199 200 200 200 201 202 202 202 201 201 201 202 201 202 202 201 201 201 202 203 204 202 201 203 204 205 205 206
178 185 188 189 185 181 179 178 181 187 189 190 190 188 186 187 188 189 191 193 194 195 195 197 197 198 200 201 201 201 200 200 199 199 200 200 200 200 200 201 203 203 203 203 203 203 203 203 204 204 203 204 204 204 205 204 203 202 202 202 206 210 212
178 184 186 186 181 177 178 180 184 186 187 188 188 187 187 187 187 188 189 192 193 194 195 196 197 198 200 201 202 202 201 200 200 200 201 201 201 201 201 202 203 204 204 204 204 204 204 205 205 205 206 206 206 206 206 204 203 202 197 199 208 213 214
178 182 180 180 179 177 176 178 181 183 184 185 186 187 186 187 187 187 188 190 192 192 194 195 196 197 199 201 202 203 203 202 202 202 201 202 202 202 202 203 204 204 205 205 204 205 206 206 206 206 207 207 207 207 207 205 203 198 195 202 210 212 213
173 176 174 176 176 174 176 179 180 181 183 182 184 185 185 187 188 188 188 189 190 192 193 194 195 197 198 200 203 203 203 203 203 202 202 202 202 203 204 204 204 204 205 204 205 206 207 207 207 206 206 207 208 208 207 205 202 198 198 205 210 212 214
166 170 169 173 176 175 180 182 181 183 184 181 181 184 185 187 187 187 189 189 190 192 193 192 194 196 197 200 203 203 202 202 202 202 201 201 202 203 204 205 204 204 204 204 204 205 206 207 206 206 206 206 207 208 208 205 202 200 203 207 211 213 214
152 162 163 165 173 177 181 184 185 185 183 181 183 186 188 188 188 188 188 189 191 193 194 193 193 196 198 201 203 202 200 200 201 201 201 201 202 203 204 204 204 203 203 203 204 204 205 206 205 206 206 207 207 208 207 206 204 203 205 209 213 214 212
151 157 166 170 172 172 172 177 186 188 186 187 186 186 188 189 187 188 189 190 193 193 193 193 194 196 199 200 201 200 199 199 200 201 201 202 202 203 203 202 202 202 202 201 202 203 203 204 205 206 206 207 208 208 208 207 205 204 207 211 214 214 212
169 167 173 178 180 180 179 179 182 185 188 191 189 188 190 189 186 189 192 193 193 192 192 194 195 197 199 198 198 199 199 198 199 200 201 202 202 201 201 200 200 201 201 201 201 201 201 203 204 205 205 207 208 208 208 207 205 205 209 213 214 214 213
188 187 186 188 186 185 185 183 182 185 189 191 191 192 192 189 189 192 194 194 192 190 192 195 195 196 196 196 197 198 198 197 198 199 200 200 200 199 198 198 199 200 200 200 199 199 200 202 203 203 205 207 208 207 208 207 206 207 211 215 216 215 213
193 188 190 200 198 193 191 186 184 189 193 193 193 193 191 190 192 194 193 192 190 191 193 194 195 195 194 194 196 197 196 196 196 197 197 197 196 195 195 196 197 198 198 198 198 199 200 201 203 205 206 207 207 206 206 207 206 208 213 216 217 216 213
200 185 183 192 196 197 195 190 190 193 195 196 195 193 191 191 193 192 190 190 190 192 194 194 194 193 193 193 194 195 194 194 193 192 191 191 190 190 191 192 194 194 194 195 197 199 200 202 204 207 206 205 205 204 205 206 207 209 214 217 217 215 211
210 196 184 186 194 200 201 199 199 197 195 193 193 194 194 194 192 189 188 190 191 191 192 193 194 193 191 192 192 192 191 189 187 186 185 184 184 185 186 188 189 190 191 192 193 196 199 202 205 207 205 202 202 202 203 204 206 210 215 216 215 213 209
264 242 216 195 191 198 203 205 204 202 198 194 193 196 197 195 191 189 188 189 191 190 190 193 195 194 191 190 189 187 186 184 182 181 181 180 180 180 181 183 185 188 191 193 194 196 199 202 204 206 205 202 202 202 202 202 206 211 215 215 214 212 208
321 305 282 239 212 203 201 202 204 204 201 197 197 200 199 195 190 188 189 191 191 190 190 193 196 193 189 187 184 182 180 180 179 179 177 176 176 176 178 181 184 188 191 192 194 196 199 201 201 203 205 205 204 203 200 201 206 211 214 214 214 212 209
319 318 322 309 294 263 211 200 202 205 202 199 200 199 198 195 192 190 191 191 190 189 193 194 193 190 185 180 177 175 175 175 175 175 173 172 173 175 177 179 181 185 187 188 192 195 196 198 200 201 202 203 203 202 202 203 207 210 213 215 214 211 209
315 296 291 301 319 308 242 204 199 200 199 201 203 200 195 192 191 193 193 190 188 192 196 193 186 179 175 171 169 168 169 170 170 170 170 172 174 174 175 177 179 182 183 184 187 190 192 195 198 200 201 201 201 202 204 206 210 213 216 218 216 211 208
345 327 318 350 3 349 329 233 207 202 199 199 200 200 198 195 192 190 188 187 191 193 190 182 173 168 165 164 164 163 163 164 166 167 169 172 172 170 171 174 177 179 181 182 183 184 186 189 194 198 202 203 204 205 207 210 215 218 220 219 216 212 209
357 346 349 16 33 36 39 38 13 352 253 214 207 200 193 189 187 186 186 188 189 185 176 168 164 162 160 159 159 158 160 161 164 166 168 169 169 168 167 170 174 176 178 180 180 179 178 181 188 194 196 198 201 204 208 211 215 220 222 218 212 211 211
2 353 350 357 12 36 57 67 49 32 23 6 343 295 207 185 179 180 184 185 176 167 162 161 160 157 156 156 156 156 158 159 161 162 163 165 166 166 166 169 172 173 175 178 178 176 174 177 182 185 184 186 190 195 200 204 207 214 219 214 208 209 212
7 2 355 352 359 17 45 72 73 60 46 26 5 346 335 319 204 182 174 169 165 160 156 156 154 151 151 151 151 151 152 154 156 157 159 162 164 166 168 170 170 170 173 176 178 177 177 178 179 179 177 177 181 187 194 197 197 201 206 206 204 207 211
14 11 6 3 1 7 30 56 64 67 68 65 70 335 325 332 328 301 179 161 158 154 151 149 147 146 145 143 143 145 146 147 150 153 157 161 164 165 167 167 166 165 167 171 176 180 182 180 180 180 177 174 177 183 191 197 201 204 206 206 207 208 209
17 16 18 18 7 6 25 44 46 57 64 63 85 116 140 159 306 307 271 165 152 148 145 144 142 138 136 137 139 141 143 145 148 150 152 154 156 156 157 161 162 161 162 167 173 178 182 183 184 182 178 177 181 186 192 200 207 211 212 212 213 215 216
17 16 21 26 20 17 28 40 42 54 58 48 57 70 75 86 101 277 263 172 148 145 142 139 137 134 133 135 137 138 140 142 143 140 137 138 141 140 142 154 163 165 167 172 177 179 181 187 192 190 185 185 189 191 196 204 209 212 214 216 219 220 219
14 14 19 29 30 25 24 23 26 51 70 61 53 61 63 57 45 327 221 147 134 132 129 127 128 129 129 130 130 130 132 132 132 130 127 126 128 126 127 141 158 166 172 176 180 182 186 192 198 200 198 197 198 202 202 200 203 208 212 215 218 221 219
13 16 18 28 35 33 27 20 14 20 46 60 61 68 71 59 41 43 92 104 105 108 111 114 118 118 119 123 126 128 127 124 125 128 127 125 124 121 117 122 140 161 173 176 179 184 190 194 198 200 199 194 195 206 210 202 197 202 207 208 209 213 215
17 13 6 18 39 43 33 23 14 11 17 40 72 82 83 77 71 76 88 99 107 110 113 115 115 113 115 123 127 129 127 125 127 129 128 128 130 128 121 115 118 135 159 172 182 192 199 203 203 203 206 202 195 194 199 197 194 196 200 199 197 198 201
20 16 9 10 34 65 64 47 26 11 5 24 70 85 94 112 107 99 99 105 110 112 115 117 117 117 122 128 130 130 132 133 135 136 135 135 138 139 136 130 121 117 123 153 186 200 209 213 212 211 213 215 212 197 182 180 187 191 189 186 184 184 188